Zurück zum Katalog

STARLINK-36983

AktivKommunikationVLEO
NORAD 68323·PAYLOAD·🇺🇸 United States

Gestartet Mar 22, 2026 von Cape Canaveral Space Force Station

Loading…

Nächste Überflüge (nächste 24 Stunden)

TLE

AktuellSource: CelesTrak SupGP

Epoche: Sep 14, 2026, 21:18 UTC

1 68323C 26059C   26257.88798611  .00079251  00000+0  23347-2 0  2575
2 68323  53.1588 181.8936 0001121  99.1647  99.7610 15.34442177    12

Verfolge STARLINK-36983 in Echtzeit mit AllMySat

Download on the App Store